Mean,"=ROUND(AVERAGE(OFFSET(INDIRECT(ADDRESS(4,COLUMN())),0,0,COUNTIF($A:$A,""*:00""),1)),2)","=ROUND(AVERAGE(OFFSET(INDIRECT(ADDRESS(4,COLUMN())),0,0,COUNTIF($A:$A,""*:00""),1)),2)","=ROUND(AVERAGE(OFFSET(INDIRECT(ADDRESS(4,COLUMN())),0,0,COUNTIF($A:$A,""*:00""),1)),2)","=ROUND(AVERAGE(OFFSET(INDIRECT(ADDRESS(4,COLUMN())),0,0,COUNTIF($A:$A,""*:00""),1)),2)","=ROUND(AVERAGE(OFFSET(INDIRECT(ADDRESS(4,COLUMN())),0,0,COUNTIF($A:$A,""*:00""),1)),2)","=ROUND(AVERAGE(OFFSET(INDIRECT(ADDRESS(4,COLUMN())),0,0,COUNTIF($A:$A,""*:00""),1)),2)","=ROUND(AVERAGE(OFFSET(INDIRECT(ADDRESS(4,COLUMN())),0,0,COUNTIF($A:$A,""*:00""),1)),2)","=ROUND(AVERAGE(OFFSET(INDIRECT(ADDRESS(4,COLUMN())),0,0,COUNTIF($A:$A,""*:00""),1)),2)","=ROUND(AVERAGE(OFFSET(INDIRECT(ADDRESS(4,COLUMN())),0,0,COUNTIF($A:$A,""*:00""),1)),2)","=ROUND(AVERAGE(OFFSET(INDIRECT(ADDRESS(4,COLUMN())),0,0,COUNTIF($A:$A,""*:00""),1)),2)","=ROUND(AVERAGE(OFFSET(INDIRECT(ADDRESS(4,COLUMN())),0,0,COUNTIF($A:$A,""*:00""),1)),2)","=ROUND(AVERAGE(OFFSET(INDIRECT(ADDRESS(4,COLUMN())),0,0,COUNTIF($A:$A,""*:00""),1)),2)","=ROUND(AVERAGE(OFFSET(INDIRECT(ADDRESS(4,COLUMN())),0,0,COUNTIF($A:$A,""*:00""),1)),2)","=ROUND(AVERAGE(OFFSET(INDIRECT(ADDRESS(4,COLUMN())),0,0,COUNTIF($A:$A,""*:00""),1)),2)","=ROUND(AVERAGE(OFFSET(INDIRECT(ADDRESS(4,COLUMN())),0,0,COUNTIF($A:$A,""*:00""),1)),2)","=ROUND(AVERAGE(OFFSET(INDIRECT(ADDRESS(4,COLUMN())),0,0,COUNTIF($A:$A,""*:00""),1)),2)","=ROUND(AVERAGE(OFFSET(INDIRECT(ADDRESS(4,COLUMN())),0,0,COUNTIF($A:$A,""*:00""),1)),2)","=ROUND(AVERAGE(OFFSET(INDIRECT(ADDRESS(4,COLUMN())),0,0,COUNTIF($A:$A,""*:00""),1)),2)","=ROUND(AVERAGE(OFFSET(INDIRECT(ADDRESS(4,COLUMN())),0,0,COUNTIF($A:$A,""*:00""),1)),2)","=ROUND(AVERAGE(OFFSET(INDIRECT(ADDRESS(4,COLUMN())),0,0,COUNTIF($A:$A,""*:00""),1)),2)"
RMS,"=ROUND(SQRT(SUMSQ(OFFSET(INDIRECT(ADDRESS(4,COLUMN())),0,0,COUNTIF($A:$A,""*:00""),1))/COUNTIF($A:$A,""*:00"")),2)","=ROUND(SQRT(SUMSQ(OFFSET(INDIRECT(ADDRESS(4,COLUMN())),0,0,COUNTIF($A:$A,""*:00""),1))/COUNTIF($A:$A,""*:00"")),2)","=ROUND(SQRT(SUMSQ(OFFSET(INDIRECT(ADDRESS(4,COLUMN())),0,0,COUNTIF($A:$A,""*:00""),1))/COUNTIF($A:$A,""*:00"")),2)","=ROUND(SQRT(SUMSQ(OFFSET(INDIRECT(ADDRESS(4,COLUMN())),0,0,COUNTIF($A:$A,""*:00""),1))/COUNTIF($A:$A,""*:00"")),2)","=ROUND(SQRT(SUMSQ(OFFSET(INDIRECT(ADDRESS(4,COLUMN())),0,0,COUNTIF($A:$A,""*:00""),1))/COUNTIF($A:$A,""*:00"")),2)","=ROUND(SQRT(SUMSQ(OFFSET(INDIRECT(ADDRESS(4,COLUMN())),0,0,COUNTIF($A:$A,""*:00""),1))/COUNTIF($A:$A,""*:00"")),2)","=ROUND(SQRT(SUMSQ(OFFSET(INDIRECT(ADDRESS(4,COLUMN())),0,0,COUNTIF($A:$A,""*:00""),1))/COUNTIF($A:$A,""*:00"")),2)","=ROUND(SQRT(SUMSQ(OFFSET(INDIRECT(ADDRESS(4,COLUMN())),0,0,COUNTIF($A:$A,""*:00""),1))/COUNTIF($A:$A,""*:00"")),2)","=ROUND(SQRT(SUMSQ(OFFSET(INDIRECT(ADDRESS(4,COLUMN())),0,0,COUNTIF($A:$A,""*:00""),1))/COUNTIF($A:$A,""*:00"")),2)","=ROUND(SQRT(SUMSQ(OFFSET(INDIRECT(ADDRESS(4,COLUMN())),0,0,COUNTIF($A:$A,""*:00""),1))/COUNTIF($A:$A,""*:00"")),2)","=ROUND(SQRT(SUMSQ(OFFSET(INDIRECT(ADDRESS(4,COLUMN())),0,0,COUNTIF($A:$A,""*:00""),1))/COUNTIF($A:$A,""*:00"")),2)","=ROUND(SQRT(SUMSQ(OFFSET(INDIRECT(ADDRESS(4,COLUMN())),0,0,COUNTIF($A:$A,""*:00""),1))/COUNTIF($A:$A,""*:00"")),2)","=ROUND(SQRT(SUMSQ(OFFSET(INDIRECT(ADDRESS(4,COLUMN())),0,0,COUNTIF($A:$A,""*:00""),1))/COUNTIF($A:$A,""*:00"")),2)","=ROUND(SQRT(SUMSQ(OFFSET(INDIRECT(ADDRESS(4,COLUMN())),0,0,COUNTIF($A:$A,""*:00""),1))/COUNTIF($A:$A,""*:00"")),2)","=ROUND(SQRT(SUMSQ(OFFSET(INDIRECT(ADDRESS(4,COLUMN())),0,0,COUNTIF($A:$A,""*:00""),1))/COUNTIF($A:$A,""*:00"")),2)","=ROUND(SQRT(SUMSQ(OFFSET(INDIRECT(ADDRESS(4,COLUMN())),0,0,COUNTIF($A:$A,""*:00""),1))/COUNTIF($A:$A,""*:00"")),2)","=ROUND(SQRT(SUMSQ(OFFSET(INDIRECT(ADDRESS(4,COLUMN())),0,0,COUNTIF($A:$A,""*:00""),1))/COUNTIF($A:$A,""*:00"")),2)","=ROUND(SQRT(SUMSQ(OFFSET(INDIRECT(ADDRESS(4,COLUMN())),0,0,COUNTIF($A:$A,""*:00""),1))/COUNTIF($A:$A,""*:00"")),2)","=ROUND(SQRT(SUMSQ(OFFSET(INDIRECT(ADDRESS(4,COLUMN())),0,0,COUNTIF($A:$A,""*:00""),1))/COUNTIF($A:$A,""*:00"")),2)","=ROUND(SQRT(SUMSQ(OFFSET(INDIRECT(ADDRESS(4,COLUMN())),0,0,COUNTIF($A:$A,""*:00""),1))/COUNTIF($A:$A,""*:00"")),2)"
,[Urban core],[Whole territories],Central/Western,Eastern,Southern,Sham Shui Po,Kwun Tong,Tung Chung,Tuen Mun,Yuen Long,Tsuen Wan,Kwai Chung,North,Tai Po,Sha Tin,Tseung Kwan O,(rural)Tap Mun,(roadside)Central,(roadside)Causeway Bay,(roadside)Mong Kok
20240502 12:00,47.24,49.03,49.25,48.16,40.49,47.79,43.24,47.97,66.3,54.82,45.47,37.03,56.66,55.87,48.76,41.11,49.42,55.06,68.17,58.3
20240502 11:00,43.94,46.97,46.86,43.88,44.06,43.7,41.15,37.86,60.82,51.76,51.92,41.95,44.6,57.48,48.91,40.7,49.73,48.39,60.68,52.52
20240502 10:00,40.24,43.79,38.76,40.63,40.27,42.54,39.05,34.14,56.86,50.44,50.47,41.13,35.99,54.94,46.29,40.71,49.46,43.78,64.5,53.16
20240502 09:00,44.45,47.85,45.71,44.23,44.32,48.09,39.79,48.66,59.64,49.37,47.56,45.5,54.46,51.85,42.82,= 49.63,64.2,51.99,66.45,56.79
20240502 08:00,45.0,47.92,41.62,42.76,37.17,48.65,46.98,54.87,54.44,45.58,49.21,46.56,50.02,58.8,46.3,= 58.56,58.69,49.99,59.37,53.99
20240502 07:00,44.8,45.76,45.67,45.27,28.53,46.0,42.26,65.61,51.87,48.48,48.56,31.81,27.04,57.9,39.52,67.48,44.76,54.53,45.74,50.56
20240502 06:00,47.54,49.11,47.08,49.53,35.16,47.92,45.62,66.0,53.7,48.02,50.59,42.28,43.76,52.64,40.56,67.72,62.49,52.2,35.51,43.28
20240502 05:00,44.8,49.25,43.67,45.55,52.56,48.54,42.67,66.47,55.64,47.75,48.18,39.18,42.36,46.99,42.16,67.56,66.42,48.29,44.53,47.9
20240502 04:00,45.14,46.21,39.58,51.16,52.43,47.51,42.31,71.86,59.48,44.42,44.42,35.83,35.78,45.51,36.47,38.82,49.84,47.03,57.36,47.43
20240502 03:00,45.7,48.02,42.69,49.04,38.72,46.49,44.57,69.57,56.28,57.03,49.22,36.5,39.58,50.23,45.98,46.29,56.75,48.6,53.61,42.86
20240502 02:00,48.82,51.98,52.69,48.28,28.36,54.14,40.16,71.43,68.98,79.41,55.65,41.4,42.86,52.03,47.07,46.54,52.19,53.68,59.96,51.1
20240502 01:00,48.15,56.32,50.29,47.63,43.61,52.59,42.32,72.16,78.4,80.27,67.06,55.53,40.9,56.41,51.22,= 46.41,36.33,54.53,60.29,56.23
20240502 00:00,48.09,56.27,50.53,45.08,57.89,50.68,46.24,72.78,66.98,91.22,48.05,50.27,55.35,51.21,51.49,46.27,54.11,50.8,69.5,57.0
20240501 23:00,46.34,51.6,52.34,40.01,50.18,54.13,38.89,64.26,65.54,77.66,47.24,50.41,29.56,49.32,46.64,46.63,48.95,52.32,74.68,58.86
20240501 22:00,72.68,56.82,135.43,51.74,22.65,61.99,41.55,57.02,67.41,68.49,50.99,54.09,24.07,50.92,48.45,47.6,33.22,75.22,86.08,64.37
20240501 21:00,59.36,50.5,81.97,51.63,20.57,57.09,46.75,52.83,57.96,58.56,50.23,55.36,27.71,53.92,46.23,39.32,26.44,65.6,88.77,67.71
20240501 20:00,56.16,51.12,61.63,50.84,45.52,67.11,45.08,49.41,54.13,50.89,49.02,67.57,24.54,43.51,50.65,50.53,44.97,76.41,85.15,71.33
20240501 19:00,50.04,51.24,51.68,48.7,60.99,57.01,42.78,47.55,54.6,42.25,51.19,74.81,26.23,46.19,39.73,71.11,53.22,75.12,81.32,63.86
20240501 18:00,51.95,51.02,54.87,47.47,61.27,56.03,49.41,42.73,36.5,56.05,49.89,69.64,28.65,45.86,39.19,70.87,41.79,70.67,86.16,59.95
20240501 17:00,47.6,47.8,49.25,47.11,45.85,45.67,48.38,36.19,42.52,53.78,53.77,62.67,34.09,45.98,40.85,60.37,41.81,65.65,86.1,63.83
20240501 16:00,45.21,43.37,48.62,40.11,32.4,50.57,41.56,45.24,37.53,36.99,59.74,49.25,32.79,35.67,43.5,48.59,42.45,60.74,70.16,61.79
20240501 15:00,45.66,42.68,42.92,37.42,32.94,51.81,50.5,47.44,31.72,28.02,57.86,51.5,25.53,36.88,44.91,46.05,62.6,55.97,69.88,58.58
20240501 14:00,47.66,40.97,47.84,43.69,49.3,51.71,47.41,29.51,34.71,23.95,46.08,38.66,26.22,45.9,40.8,36.22,73.44,52.25,66.2,62.73
20240501 13:00,33.32,33.27,30.1,36.66,48.02,35.11,31.4,30.42,30.52,26.76,32.47,40.81,26.21,33.42,26.91,33.14,57.1,55.08,58.02,45.45
20240501 12:00,33.58,33.41,26.13,30.4,38.21,37.88,39.93,33.5,24.27,24.5,29.36,49.96,27.24,38.4,30.69,30.5,38.23,54.53,57.5,46.4
20240501 11:00,34.14,33.39,31.41,31.82,42.17,35.71,37.61,25.15,28.34,26.98,35.72,52.31,22.62,39.87,27.92,25.87,22.27,48.18,61.07,42.09
20240501 10:00,30.37,28.85,24.62,27.81,30.91,39.97,29.1,19.74,31.97,25.56,33.79,30.18,23.13,33.76,24.09,28.22,27.05,43.5,65.33,43.19
20240501 09:00,26.66,27.63,23.7,26.86,29.55,28.81,27.28,23.87,34.8,25.76,29.08,25.89,31.73,29.56,24.62,22.66,27.68,33.2,50.12,37.51
20240501 08:00,26.4,28.17,27.9,26.85,24.8,28.3,22.55,24.15,25.32,51.99,32.37,25.96,31.21,27.56,25.93,28.32,34.09,33.24,47.93,29.57
20240501 07:00,27.01,33.19,28.09,29.57,25.99,27.84,22.6,35.6,25.79,52.75,39.71,31.52,40.27,34.39,31.89,44.17,35.12,28.86,29.77,25.55
20240501 06:00,39.33,44.17,35.02,41.56,27.41,54.93,25.8,55.68,60.52,52.1,43.25,26.97,46.54,50.43,31.63,66.34,36.51,26.8,40.97,54.29
20240501 05:00,42.77,48.85,39.2,50.51,45.9,42.41,38.96,55.88,52.5,55.29,44.23,47.04,47.57,57.99,47.76,58.59,47.17,55.59,33.78,48.98
20240501 04:00,46.05,50.92,46.62,51.1,58.25,46.68,38.54,59.75,52.25,57.05,52.97,51.88,47.19,58.03,53.27,37.81,57.14,59.74,38.77,46.02
20240501 03:00,57.65,55.06,56.25,56.13,57.1,62.65,55.56,52.91,55.74,50.62,54.91,54.69,46.09,59.74,54.09,54.34,34.38,63.91,59.7,57.71
20240501 02:00,59.34,54.77,55.47,56.72,50.89,62.17,62.99,47.21,63.46,53.79,57.86,52.31,47.11,62.71,57.54,36.49,36.91,62.6,73.83,63.58
20240501 01:00,52.64,52.24,50.15,52.43,49.35,54.35,53.82,57.83,53.76,49.84,58.68,61.74,51.09,64.4,47.54,27.08,60.28,59.74,62.92,62.52
20240501 00:00,41.45,50.58,48.33,35.94,47.47,47.89,33.64,57.11,52.84,41.31,50.67,56.66,57.39,60.46,57.38,60.97,55.12,55.06,52.37,53.86
20240430 23:00,37.92,45.62,52.25,37.42,43.84,33.99,28.02,37.01,43.24,53.91,66.95,47.56,54.25,46.66,48.02,= 59.88,50.11,38.01,42.54,40.4
20240430 22:00,26.86,31.72,30.6,23.19,27.99,18.71,34.93,36.63,51.85,34.7,32.39,34.12,45.58,26.72,14.99,= 58.8,39.94,56.13,64.22,32.99
20240430 21:00,21.72,33.35,25.16,17.15,41.65,24.78,19.78,32.93,50.53,32.34,39.74,39.01,48.62,37.99,23.91,= 57.72,45.77,59.34,66.42,44.17
20240430 20:00,24.3,32.17,23.16,17.36,49.48,33.37,23.32,30.45,53.67,32.2,31.0,37.32,33.76,35.09,18.21,= 56.63,73.08,45.7,38.22,46.92
20240430 19:00,34.23,36.28,38.53,38.69,44.53,32.37,27.35,26.59,48.39,46.0,30.24,35.27,47.32,34.36,21.96,= 55.55,57.21,34.73,47.9,42.27
20240430 18:00,35.55,36.4,25.72,42.26,36.24,43.16,31.06,23.15,35.77,25.59,45.13,46.69,41.42,48.35,28.69,= 54.46,22.07,54.11,62.41,51.27
20240430 17:00,34.51,38.18,34.53,29.82,28.71,35.97,37.72,28.23,42.08,33.12,46.59,46.93,53.01,47.08,33.64,= 53.38,23.18,55.67,55.73,49.2
20240430 16:00,34.37,41.47,32.97,28.46,37.2,40.24,35.81,43.51,54.19,45.62,43.47,41.96,52.52,51.34,35.19,= 52.29,49.49,57.36,58.04,44.66
20240430 15:00,36.85,40.98,36.91,29.3,29.47,40.3,40.9,33.08,49.82,43.77,45.85,40.05,47.13,60.01,38.48,= 51.2,= 40.44,68.62,55.86,43.02
20240430 14:00,37.38,42.21,42.56,36.04,43.44,36.04,34.88,39.55,53.99,35.93,45.54,39.37,41.53,56.64,46.31,= 50.12,= 31.4,56.39,46.06,48.17
20240430 13:00,39.66,41.45,43.25,34.97,48.83,41.55,38.87,42.08,52.14,24.15,39.58,40.84,44.59,50.58,39.41,= 49.03,22.35,43.86,42.17,50.7
20240430 12:00,36.53,39.29,31.4,34.84,31.91,43.42,36.47,40.63,48.9,32.19,36.16,36.08,47.76,50.5,35.01,47.95,28.19,50.29,49.29,57.13
20240430 11:00,36.39,40.29,35.2,35.49,24.94,39.21,35.48,39.11,54.04,41.99,38.62,38.8,49.64,55.17,29.92,47.93,28.26,51.82,57.8,52.17
20240430 10:00,36.74,39.36,26.52,34.32,21.82,42.71,43.4,34.77,45.36,43.82,45.93,47.03,36.22,48.16,32.67,47.94,33.51,45.61,49.59,48.86
20240430 09:00,32.01,36.55,20.68,30.08,23.2,38.0,39.27,35.45,44.44,34.36,44.95,46.42,36.27,44.36,34.76,39.47,21.38,34.9,46.91,47.02
20240430 08:00,30.29,34.23,26.84,37.12,34.29,26.55,30.65,35.07,54.98,24.15,37.34,40.57,23.33,45.86,31.09,29.17,22.76,17.02,33.17,35.19
20240430 07:00,26.49,32.37,24.11,28.3,36.37,29.61,23.95,24.05,38.61,24.58,40.22,43.69,23.09,48.14,30.08,37.49,40.44,30.39,49.15,35.11
20240430 06:00,27.37,31.77,23.62,29.57,28.95,27.77,28.51,23.39,37.1,30.08,38.43,31.15,34.54,44.74,22.92,44.06,69.74,23.62,35.86,34.66
20240430 05:00,26.22,31.64,19.74,26.42,43.0,25.84,32.87,37.74,27.26,29.53,34.24,31.11,30.13,39.46,24.14,41.5,67.84,37.26,25.61,23.82
20240430 04:00,29.84,31.29,27.62,32.36,30.5,27.53,31.45,20.34,52.61,27.35,28.48,24.13,31.58,39.84,22.68,40.92,37.2,33.6,31.46,27.7
20240430 03:00,29.5,29.42,30.44,37.19,15.15,26.11,24.24,24.48,38.52,21.36,23.19,23.26,44.38,38.75,22.61,43.18,45.39,32.03,33.28,26.79
20240430 02:00,29.0,33.75,36.52,31.26,24.32,21.14,27.08,32.69,49.55,26.06,27.27,30.38,48.91,44.19,23.24,49.88,47.98,28.17,34.67,34.76
20240430 01:00,23.4,31.2,23.6,25.77,37.03,19.95,24.29,29.4,35.23,29.07,35.12,30.48,37.1,45.09,23.36,41.2,32.41,35.73,46.68,34.21
20240430 00:00,26.83,31.59,17.97,34.63,37.89,25.25,29.45,28.34,34.39,27.66,32.09,37.36,44.77,41.6,20.59,30.33,34.09,48.97,48.86,40.68
20240429 23:00,30.34,33.28,22.18,38.91,38.39,33.54,26.73,18.45,24.13,29.45,37.51,46.95,38.3,46.2,30.08,35.11,48.4,49.38,51.94,47.62
20240429 22:00,27.9,32.32,30.06,21.91,28.14,32.08,27.56,27.07,29.87,29.05,36.81,41.29,35.04,40.1,30.17,43.37,47.66,50.06,54.58,43.41
20240429 21:00,30.49,33.4,36.9,30.29,24.14,22.11,32.65,29.51,36.57,33.29,33.33,39.41,38.3,43.41,22.68,44.95,25.69,48.6,59.74,41.5
20240429 20:00,33.72,34.18,36.15,34.16,26.49,20.25,44.34,28.91,43.88,27.17,33.85,37.79,28.34,43.75,26.17,46.64,18.41,52.54,67.51,42.31
20240429 19:00,36.54,34.8,32.34,43.19,34.32,25.1,45.52,20.74,46.4,32.94,39.21,33.77,30.31,37.93,19.08,46.41,= 19.18,53.73,59.92,40.54
20240429 18:00,41.36,36.86,37.07,38.59,35.2,42.93,46.85,21.16,51.63,37.72,32.9,37.99,28.59,36.82,23.78,44.87,= 19.95,50.93,63.15,45.84
20240429 17:00,41.33,37.59,34.91,40.07,33.74,43.06,47.27,21.64,55.38,35.91,30.55,48.35,32.82,36.88,29.2,36.39,= 20.72,47.76,52.91,37.54
20240429 16:00,37.96,35.86,33.6,32.27,26.99,43.0,42.98,24.83,42.6,29.43,44.14,40.24,35.59,22.98,38.54,44.89,= 21.5,57.36,53.68,44.2
20240429 15:00,41.03,40.01,33.74,44.84,24.77,40.84,44.71,22.66,49.9,30.68,43.76,37.51,46.13,47.3,33.01,58.24,= 22.27,61.82,61.41,49.01
20240429 14:00,39.59,41.28,37.14,43.95,41.61,32.74,44.54,33.07,41.52,30.81,45.21,39.79,52.22,49.2,31.98,54.16,= 23.04,71.13,64.65,46.45
20240429 13:00,41.6,42.25,32.28,= 47.01,42.02,45.45,47.06,24.38,44.5,27.79,45.38,38.69,47.21,48.8,= 34.97,63.42,23.81,67.76,61.66,52.12
20240429 12:00,43.99,42.35,31.12,50.07,35.27,45.42,51.39,17.54,73.44,33.36,41.32,44.72,36.28,46.04,37.95,50.94,23.79,53.77,61.74,53.82
20240429 11:00,41.79,41.31,28.57,47.21,35.82,45.8,46.46,30.65,52.97,30.45,46.14,47.37,33.71,44.72,38.0,50.9,23.25,58.14,61.6,61.1
20240429 10:00,38.01,36.04,34.15,43.28,23.37,38.25,36.37,28.35,45.2,30.86,49.35,37.78,34.78,28.65,37.76,36.35,28.09,58.96,64.09,53.59
20240429 09:00,36.59,32.56,38.75,37.1,22.47,37.71,32.78,28.63,38.82,26.1,43.61,29.16,29.41,26.99,30.77,33.51,33.07,48.27,70.97,45.76
20240429 08:00,27.67,30.13,30.67,24.26,24.63,29.34,26.4,35.05,48.68,29.2,26.86,29.61,26.95,33.07,30.21,26.7,27.51,37.16,60.2,35.37
20240429 07:00,23.96,28.61,23.14,25.61,23.4,25.97,21.11,23.17,38.25,33.33,31.1,29.39,33.61,29.04,29.06,34.41,36.2,27.31,43.24,29.89
20240429 06:00,25.14,28.29,20.78,32.37,21.67,26.14,21.28,18.5,41.28,23.31,22.79,24.9,41.91,28.05,27.31,45.83,42.94,24.06,26.23,25.13
20240429 05:00,24.81,29.07,21.63,29.29,26.01,24.35,23.98,25.18,49.78,19.07,25.4,25.32,37.19,31.76,30.66,37.73,24.0,36.84,21.85,23.92
20240429 04:00,26.48,30.11,24.52,32.61,40.01,25.65,22.46,25.24,49.83,21.17,27.72,24.75,36.13,31.33,29.33,28.53,25.05,41.87,21.03,25.48
20240429 03:00,27.04,28.15,23.01,35.5,22.4,22.73,26.92,20.19,49.86,21.61,28.87,21.93,32.96,32.42,28.28,27.42,28.76,35.59,25.31,20.18
20240429 02:00,25.89,28.29,23.73,28.85,20.05,24.96,26.03,26.95,41.57,22.63,30.52,28.03,34.2,33.53,25.59,29.44,29.33,27.91,41.03,24.42
20240429 01:00,27.42,28.37,25.31,28.15,21.38,27.06,29.17,22.35,31.45,20.49,34.14,26.45,37.74,35.21,28.37,29.88,32.5,26.68,46.31,26.61
20240429 00:00,26.16,29.95,26.23,28.06,35.4,24.24,26.13,23.59,34.86,22.23,36.43,26.9,31.3,35.44,32.73,36.1,31.78,28.41,49.47,30.58
20240428 23:00,28.2,30.4,30.65,30.04,31.61,26.38,25.73,30.97,40.39,22.62,31.89,23.68,32.98,32.03,31.52,35.36,41.83,32.55,50.06,36.88
20240428 22:00,28.34,28.86,31.64,31.72,22.56,26.37,23.63,24.65,40.84,24.29,32.24,22.21,33.76,30.16,29.87,30.03,41.53,31.7,53.14,43.86
20240428 21:00,28.35,30.64,27.23,29.16,24.09,31.97,25.04,28.71,41.63,24.0,43.28,25.02,33.77,33.18,32.97,31.09,38.0,48.86,57.82,50.98
20240428 20:00,33.32,32.67,30.7,34.24,28.68,37.15,31.17,28.55,32.68,28.91,36.18,27.65,34.71,37.64,35.39,33.65,50.4,52.48,48.55,51.59
20240428 19:00,30.27,33.25,29.92,32.68,29.54,29.39,29.09,30.21,43.93,31.63,35.9,28.39,35.79,32.42,36.57,40.33,49.21,43.65,45.24,38.89
20240428 18:00,32.85,36.15,33.22,33.85,31.74,32.08,32.25,32.79,46.44,33.43,39.65,28.18,38.01,39.11,39.75,45.62,41.68,35.2,49.52,40.89
20240428 17:00,34.08,34.94,34.34,35.38,31.12,33.3,33.29,29.98,34.97,33.92,39.2,30.09,38.34,39.63,36.83,38.79,51.15,38.8,58.12,47.3
20240428 16:00,33.71,34.37,29.25,31.65,35.33,36.07,37.86,33.82,33.89,30.43,33.6,29.32,38.47,35.45,36.78,38.08,54.59,46.07,53.03,51.4
20240428 15:00,33.75,35.17,31.33,34.37,34.29,34.76,34.55,34.52,33.08,34.88,35.04,31.36,40.23,35.51,39.18,39.49,47.14,32.17,67.28,53.03
20240428 14:00,36.27,38.76,33.04,36.89,43.28,39.77,35.37,36.88,34.72,34.16,37.92,37.36,43.17,48.81,40.6,40.2,48.97,51.49,71.02,50.51
20240428 13:00,37.14,39.55,35.85,40.15,38.82,39.22,33.34,35.57,40.39,39.2,41.61,37.33,40.91,50.85,36.55,43.89,52.98,46.64,68.95,51.03
20240428 12:00,37.67,38.63,37.86,36.42,36.63,35.78,40.63,32.01,41.01,38.89,42.28,35.6,38.33,42.65,41.01,41.79,46.35,48.53,49.96,48.68
20240428 11:00,34.86,36.04,34.8,37.07,33.58,32.3,35.27,27.84,35.05,32.85,38.93,32.12,40.98,39.65,40.54,43.6,45.48,39.29,32.52,40.16
20240428 10:00,33.76,36.53,34.03,35.61,34.32,31.72,33.66,32.37,34.89,34.07,46.57,31.79,44.68,36.31,39.5,41.83,45.49,33.59,29.68,34.17
20240428 09:00,36.2,36.74,36.27,37.47,36.9,34.48,36.58,33.88,35.59,31.42,43.21,33.52,40.19,33.79,40.63,40.46,45.56,30.72,31.81,31.16
20240428 08:00,37.12,36.06,37.2,40.72,38.6,33.8,36.78,29.92,38.06,26.62,41.35,27.81,38.11,34.72,40.34,40.82,47.17,38.38,45.08,31.02
20240428 07:00,34.48,35.75,32.5,38.51,37.87,32.01,34.9,30.65,49.37,24.75,39.94,30.92,37.03,34.14,37.34,40.57,41.73,27.1,32.44,29.45
20240428 06:00,34.25,33.5,28.88,39.12,29.15,34.51,34.49,25.63,24.74,34.9,37.1,32.48,33.5,35.13,35.54,44.91,38.08,31.4,32.1,30.96
20240428 05:00,27.89,30.95,27.12,27.88,27.02,32.28,24.29,15.24,40.51,29.16,38.89,29.86,31.61,33.16,35.33,40.93,73.74,40.33,18.32,38.96
20240428 04:00,24.27,26.55,14.38,28.79,22.45,39.51,16.93,21.68,26.7,23.46,35.83,33.09,32.58,29.26,25.87,22.88,74.62,49.4,19.86,40.66
20240428 03:00,24.99,27.52,16.11,29.97,25.04,33.11,20.78,28.71,33.53,28.9,34.8,31.6,32.02,31.23,19.22,20.61,39.47,50.08,35.1,33.85
20240428 02:00,29.66,31.72,17.21,30.67,40.39,40.37,30.39,31.59,41.13,28.04,34.48,25.97,35.57,28.4,22.1,37.74,40.05,40.07,49.94,31.85
20240428 01:00,28.4,33.23,14.32,30.49,33.42,40.81,26.58,31.47,47.87,38.87,30.22,29.43,45.47,28.41,21.49,44.66,41.9,37.46,44.1,41.14
20240428 00:00,34.82,36.16,21.42,41.23,33.49,36.17,40.46,24.94,34.09,45.02,34.98,24.02,47.19,38.98,39.24,45.06,44.86,46.24,63.15,47.66
20240427 23:00,27.74,35.99,26.89,33.53,33.37,23.3,27.25,32.43,34.58,46.63,45.82,24.91,52.43,40.01,29.44,53.26,38.98,47.86,53.12,42.68
20240427 22:00,31.68,37.48,21.56,34.64,23.67,43.97,26.54,30.53,32.92,26.27,48.69,38.83,56.94,50.28,38.79,51.12,31.04,57.39,59.88,53.12
20240427 21:00,39.64,42.32,30.18,40.99,28.18,49.93,37.46,38.59,54.97,40.49,47.73,35.29,46.63,52.53,40.82,48.73,37.03,55.76,72.45,57.64
20240427 20:00,42.68,38.2,37.01,38.78,32.94,50.23,44.68,33.68,36.88,29.36,37.68,40.84,34.6,42.27,34.66,41.15,29.37,47.11,71.7,48.09
20240427 19:00,37.23,37.92,37.09,28.0,28.0,43.8,40.02,26.25,58.81,24.03,39.72,43.68,43.72,40.65,32.79,44.38,43.91,= 46.13,64.25,47.68
20240427 18:00,39.28,40.77,33.06,35.48,42.61,45.0,43.58,16.81,56.01,31.73,48.09,48.35,46.08,31.25,46.62,46.12,34.25,= 45.16,60.56,51.21
20240427 17:00,36.11,38.08,28.07,37.55,38.19,36.79,42.01,24.12,50.48,33.85,38.25,40.94,47.51,41.8,41.46,32.09,20.76,44.18,63.99,51.34
20240427 16:00,37.13,37.04,26.37,35.46,27.23,44.55,42.12,30.73,52.33,31.44,38.52,36.78,43.3,42.88,41.78,25.05,20.04,44.06,59.97,47.85
20240427 15:00,39.35,40.5,25.12,44.58,33.32,44.27,43.42,46.99,46.73,34.25,47.93,43.85,38.11,49.6,44.57,24.24,20.96,43.73,63.99,50.24
20240427 14:00,33.01,37.22,29.25,32.49,39.69,35.7,34.59,27.83,53.64,39.23,37.64,44.23,35.64,50.2,33.21,27.68,22.67,43.58,64.63,46.6
20240427 13:00,39.27,39.81,35.47,40.86,41.77,38.38,42.39,22.59,50.41,34.8,42.24,42.03,46.43,50.69,34.1,35.15,18.75,43.86,61.16,46.56
20240427 12:00,38.63,44.23,31.55,36.2,47.44,43.97,42.78,33.36,53.7,40.31,47.26,45.4,57.79,46.53,38.32,54.59,14.88,43.96,63.4,47.37
20240427 11:00,36.94,44.16,28.35,41.35,42.86,44.98,33.05,39.14,54.57,38.89,32.88,37.14,62.27,54.52,45.76,62.42,39.96,44.11,58.72,48.1
20240427 10:00,39.18,45.58,32.9,45.2,28.85,40.7,37.93,52.2,58.1,44.68,40.22,34.74,58.58,63.64,45.4,54.97,27.75,44.28,62.92,49.62
20240427 09:00,36.14,42.6,31.19,36.56,27.73,37.45,39.35,35.97,58.09,45.22,45.93,38.61,50.97,59.51,43.1,46.8,26.57,44.73,57.3,48.91
20240427 08:00,36.93,41.38,27.26,42.78,29.09,32.39,45.31,41.77,58.16,41.01,43.64,37.44,50.37,49.52,33.13,47.48,27.9,43.85,54.97,45.42
20240427 07:00,39.04,40.75,24.57,53.96,19.94,31.63,46.02,44.36,38.93,38.05,37.58,35.49,52.72,49.44,41.24,56.54,26.15,34.27,54.58,33.68
20240427 06:00,32.22,36.16,28.07,39.37,18.15,23.99,37.45,35.43,48.07,30.37,31.13,34.67,49.42,47.68,27.3,55.17,19.3,34.78,41.52,28.52
20240427 05:00,32.13,35.73,28.05,42.92,27.41,23.94,33.6,33.7,41.49,23.88,34.34,39.73,48.88,45.52,28.33,48.49,21.88,40.33,32.33,37.87
20240427 04:00,30.32,35.01,26.74,34.65,23.92,27.15,33.21,28.94,48.06,23.32,37.73,41.71,49.59,46.41,31.54,37.42,22.4,30.94,42.44,26.78
20240427 03:00,26.11,34.2,23.72,25.53,23.72,27.97,27.21,34.72,44.43,30.64,33.92,35.8,53.35,47.64,33.0,37.21,25.36,33.91,42.19,31.48
20240427 02:00,31.25,36.82,23.51,34.71,32.18,30.71,36.06,31.62,57.03,27.84,30.11,26.94,58.23,41.84,38.05,46.68,19.29,49.77,37.96,40.07
20240427 01:00,25.86,36.61,19.42,26.38,45.28,27.24,30.38,25.82,50.8,32.68,41.74,31.14,58.3,44.57,31.81,46.96,22.64,47.18,53.09,43.38
20240427 00:00,27.99,36.88,24.36,28.03,34.24,29.53,30.05,42.82,48.36,33.78,33.37,32.69,56.47,49.01,31.47,42.08,25.73,48.37,52.18,44.43
20240426 23:00,29.69,35.61,19.1,36.31,16.92,33.65,29.71,38.5,51.81,34.22,35.51,44.33,50.59,41.39,30.35,36.2,28.33,56.01,63.58,42.68
20240426 22:00,30.42,35.64,19.81,35.85,22.36,39.27,26.78,39.17,48.59,31.57,34.2,35.41,50.7,49.34,26.88,39.02,30.89,53.35,73.18,43.12
20240426 21:00,29.95,38.47,23.72,35.15,27.66,31.33,29.6,28.67,69.98,27.44,36.57,49.82,52.09,58.57,32.78,35.15,29.25,67.8,72.68,48.05
20240426 20:00,36.85,42.5,24.0,45.16,36.36,38.94,39.29,25.08,59.92,48.17,41.23,46.43,51.23,64.17,35.99,38.97,25.15,74.2,71.67,50.15
20240426 19:00,32.23,41.39,26.23,26.24,46.05,45.02,31.43,35.9,42.81,37.5,46.29,50.46,49.05,59.03,36.05,47.42,21.32,54.01,57.05,49.78
20240426 18:00,32.87,39.37,23.55,34.26,36.22,39.28,34.4,35.4,46.66,24.21,43.24,42.81,51.6,55.03,34.71,49.85,22.9,50.99,64.8,46.8
20240426 17:00,35.52,38.47,31.59,26.01,30.19,39.64,44.86,27.01,46.27,26.1,40.19,41.47,56.23,49.45,31.4,48.15,30.78,56.19,61.49,46.03
20240426 16:00,33.09,37.9,25.65,27.75,26.87,41.6,37.36,36.54,49.66,30.5,44.43,44.35,35.62,44.92,36.34,48.05,31.3,54.96,57.55,44.13
20240426 15:00,34.55,38.98,25.69,32.72,33.12,38.54,41.26,34.68,48.05,40.95,48.59,44.36,39.28,44.89,36.03,37.63,30.51,50.31,56.4,50.39
20240426 14:00,48.01,41.22,44.67,45.78,48.77,48.61,52.98,33.95,38.75,45.95,30.13,41.04,37.3,46.14,31.81,30.04,31.82,70.58,75.06,52.92
20240426 13:00,51.33,41.03,51.96,48.9,41.2,53.48,51.0,35.69,46.81,34.94,30.21,37.24,31.49,35.01,40.01,34.56,= 31.18,65.79,85.62,62.69
20240426 12:00,37.51,37.2,25.94,40.65,30.77,45.6,37.83,37.53,53.07,35.36,36.54,43.37,34.68,31.36,29.91,37.88,= 30.54,53.66,69.97,57.44
20240426 11:00,36.22,33.97,35.76,34.16,35.87,40.45,34.5,27.25,34.46,36.93,37.34,34.55,34.28,21.7,28.86,39.46,29.9,62.71,65.8,55.32
20240426 10:00,31.25,33.78,22.25,30.72,27.31,46.66,25.38,14.83,52.76,29.16,31.78,33.4,30.51,29.76,56.41,38.41,29.78,51.62,62.03,62.69